Date String (YYYY-MM-DD hh:mm:ss) UTC,Instrument flags,absolute air pressure of the measurement (hPa),sample flow rate (lpm),inlet stack bypass flow (lpm),air temperature of the measurement (°C),ambient temperature measured by the external sensor (°C),aerosol sample conditioner tube jacket temperature (°C),OPC LED temperature (°C),internal box temperature (°C),relative humidity of the measurement (%),span deviation,mass concentration of particles derived from Lorenz-Mie calculation of OPC scattering (μg/m³),mass concentration of particles derived from Lorenz-Mie calculation of OPC scattering (μg/m³),mass concentration of particles derived from Lorenz-Mie calculation of OPC scattering (μg/m³)
DateTimeUTC,F1_M11,P_M11,Q1_M11,Q2_M11,T1_M11,T2_M11,T3_M11,T4_M11,T5_M11,U1_M11,ZSPAN_M11,X0_M11,X2_M11,X1_M11
2024-06-13 23:00:00,SystemResetWarning,0830.3,5.01,000.00,028.2,025.4,000.0,036.8,029.2,028.0,0000.0,0032.04,0006.57,0004.62
2024-06-13 23:01:00,SystemResetWarning,0830.2,5.01,000.00,028.2,026.1,000.0,036.8,029.4,028.7,0000.0,0031.27,0006.53,0004.61
2024-06-13 23:02:00,SystemResetWarning,0830.2,5.00,000.00,028.2,026.5,000.0,036.7,029.7,028.1,0000.0,0032.60,0006.53,0004.60
2024-06-13 23:03:00,SystemResetWarning,0830.3,4.99,000.00,028.3,027.0,000.0,036.7,029.9,027.9,0000.0,0032.34,0006.55,0004.57
2024-06-13 23:04:00,SystemResetWarning,0830.2,5.00,000.00,028.4,027.3,000.0,036.6,030.1,027.4,0000.0,0030.34,0006.60,0004.55
2024-06-13 23:05:00,SystemResetWarning,0830.3,5.00,000.00,028.5,027.7,000.0,036.7,030.3,027.0,0000.0,0030.34,0006.57,0004.54
2024-06-13 23:06:00,SystemResetWarning,0830.2,4.99,000.00,028.6,028.0,000.0,036.7,030.5,027.1,0000.0,0029.38,0006.62,0004.54
2024-06-13 23:07:00,SystemResetWarning,0830.3,5.00,000.00,028.7,028.2,000.0,036.7,030.6,026.6,0000.0,0030.19,0006.62,0004.53
2024-06-13 23:08:00,SystemResetWarning,0830.3,5.00,000.00,028.8,028.4,000.0,036.8,030.7,026.4,0000.0,0030.63,0006.48,0004.51
2024-06-13 23:09:00,SystemResetWarning,0830.2,5.00,000.00,028.7,027.2,000.0,036.8,030.1,026.4,0000.0,0029.20,0006.45,0004.51
2024-06-13 23:10:00,SystemResetWarning,0830.2,5.00,000.00,028.4,025.4,000.0,036.9,029.2,027.3,0000.0,0026.58,0006.53,0004.52
2024-06-13 23:11:00,SystemResetWarning,0830.2,5.03,000.00,028.2,025.6,000.0,036.8,029.2,027.6,0000.0,0026.99,0006.58,0004.53
2024-06-13 23:12:00,SystemResetWarning,0830.3,4.99,000.00,028.2,026.2,000.0,036.8,029.5,026.5,0000.0,0027.40,0006.57,0004.53
2024-06-13 23:13:00,SystemResetWarning,0830.3,5.00,000.00,028.3,026.6,000.0,036.7,029.8,026.9,0000.0,0027.91,0006.58,0004.54
2024-06-13 23:14:00,SystemResetWarning,0830.3,4.99,000.00,028.3,027.1,000.0,036.7,030.0,026.6,0000.0,0028.83,0006.61,0004.55
2024-06-13 23:15:00,SystemResetWarning,0830.3,5.00,000.00,028.4,027.4,000.0,036.7,030.2,025.9,0000.0,0028.28,0006.58,0004.55
2024-06-13 23:16:00,SystemResetWarning,0830.3,5.00,000.00,028.5,027.8,000.0,036.7,030.4,026.0,0000.0,0027.36,0006.65,0004.58
2024-06-13 23:17:00,SystemResetWarning,0830.3,5.00,000.00,028.6,028.1,000.0,036.7,030.5,026.3,0000.0,0027.39,0006.66,0004.60
2024-06-13 23:18:00,SystemResetWarning,0830.3,4.99,000.00,028.7,028.3,000.0,036.8,030.6,026.0,0000.0,0026.50,0006.66,0004.62
2024-06-13 23:19:00,SystemResetWarning,0830.3,4.98,000.00,028.7,027.5,000.0,036.8,030.2,026.3,0000.0,0026.83,0006.74,0004.64
2024-06-13 23:20:00,SystemResetWarning,0830.2,5.01,000.00,028.4,025.6,000.0,036.9,029.2,026.6,0000.0,0028.01,0006.81,0004.65
2024-06-13 23:21:00,SystemResetWarning,0830.2,5.02,000.00,028.2,025.5,000.0,036.9,029.1,027.5,0000.0,0031.20,0006.77,0004.66
2024-06-13 23:22:00,SystemResetWarning,0830.3,5.00,000.00,028.2,026.1,000.0,036.8,029.4,027.3,0000.0,0030.58,0006.78,0004.65
2024-06-13 23:23:00,SystemResetWarning,0830.3,5.01,000.00,028.2,026.5,000.0,036.7,029.7,027.1,0000.0,0030.53,0006.71,0004.65
2024-06-13 23:24:00,SystemResetWarning,0830.3,4.99,000.00,028.3,027.0,000.0,036.7,029.9,027.1,0000.0,0030.49,0006.67,0004.64
2024-06-13 23:25:00,SystemResetWarning,0830.3,5.00,000.00,028.4,027.3,000.0,036.7,030.1,027.3,0000.0,0030.28,0006.76,0004.63
2024-06-13 23:26:00,SystemResetWarning,0830.4,5.00,000.00,028.5,027.7,000.0,036.7,030.3,027.6,0000.0,0031.18,0006.81,0004.63
2024-06-13 23:27:00,SystemResetWarning,0830.4,5.01,000.00,028.6,028.0,000.0,036.7,030.4,027.2,0000.0,0030.79,0006.83,0004.62
2024-06-13 23:28:00,SystemResetWarning,0830.4,5.00,000.00,028.7,028.2,000.0,036.7,030.6,026.7,0000.0,0032.35,0006.86,0004.59
2024-06-13 23:29:00,SystemResetWarning,0830.4,5.00,000.00,028.8,028.3,000.0,036.8,030.6,026.4,0000.0,0032.96,0006.92,0004.56
2024-06-13 23:30:00,SystemResetWarning,0830.3,4.99,000.00,028.7,026.9,000.0,036.9,029.9,026.5,0000.0,0033.02,0006.92,0004.55
2024-06-13 23:31:00,SystemResetWarning,0830.3,5.01,000.00,028.3,025.4,000.0,036.9,029.2,026.8,0000.0,0032.70,0006.82,0004.53
2024-06-13 23:32:00,SystemResetWarning,0830.3,5.01,000.00,028.2,025.8,000.0,036.8,029.3,026.2,0000.0,0030.67,0006.81,0004.51
2024-06-13 23:33:00,SystemResetWarning,0830.3,5.00,000.00,028.2,026.3,000.0,036.8,029.6,026.2,0000.0,0031.22,0006.79,0004.50
2024-06-13 23:34:00,SystemResetWarning,0830.3,5.00,000.00,028.3,026.7,000.0,036.7,029.8,026.8,0000.0,0031.91,0006.75,0004.49
2024-06-13 23:35:00,SystemResetWarning,0830.4,5.01,000.00,028.4,027.1,000.0,036.7,030.1,026.5,0000.0,0030.57,0006.75,0004.47
2024-06-13 23:36:00,SystemResetWarning,0830.3,4.99,000.00,028.4,027.5,000.0,036.7,030.2,025.8,0000.0,0030.52,0006.67,0004.45
2024-06-13 23:37:00,SystemResetWarning,0830.3,4.99,000.00,028.6,027.8,000.0,036.7,030.4,026.0,0000.0,0031.12,0006.59,0004.45
2024-06-13 23:38:00,SystemResetWarning,0830.4,5.00,000.00,028.6,028.1,000.0,036.7,030.5,025.6,0000.0,0032.96,0006.56,0004.45
2024-06-13 23:39:00,SystemResetWarning,0830.4,5.00,000.00,028.7,028.3,000.0,036.8,030.6,024.9,0000.0,0031.91,0006.55,0004.45
2024-06-13 23:40:00,SystemResetWarning,0830.3,4.99,000.00,028.7,027.1,000.0,036.8,030.0,025.1,0000.0,0031.13,0006.46,0004.46
2024-06-13 23:41:00,SystemResetWarning,0830.2,5.02,000.00,028.4,025.3,000.0,036.9,029.2,026.3,0000.0,0031.05,0006.42,0004.45
2024-06-13 23:42:00,SystemResetWarning,0830.2,5.01,000.00,028.2,025.6,000.0,036.8,029.2,026.7,0000.0,0029.82,0006.42,0004.45
2024-06-13 23:43:00,SystemResetWarning,0830.3,4.99,000.00,028.2,026.1,000.0,036.8,029.5,027.0,0000.0,0029.88,0006.45,0004.44
2024-06-13 23:44:00,SystemResetWarning,0830.3,4.99,000.00,028.2,026.6,000.0,036.7,029.8,026.6,0000.0,0030.02,0006.51,0004.43
2024-06-13 23:45:00,SystemResetWarning,0830.3,5.01,000.00,028.3,027.0,000.0,036.7,030.0,026.8,0000.0,0029.21,0006.47,0004.41
2024-06-13 23:46:00,SystemResetWarning,0830.3,5.01,000.00,028.4,027.4,000.0,036.7,030.2,027.5,0000.0,0029.58,0006.55,0004.42
2024-06-13 23:47:00,SystemResetWarning,0830.3,5.00,000.00,028.5,027.7,000.0,036.7,030.3,026.4,0000.0,0029.52,0006.61,0004.42
2024-06-13 23:48:00,SystemResetWarning,0830.4,5.00,000.00,028.6,028.0,000.0,036.7,030.5,026.9,0000.0,0030.22,0006.62,0004.42
2024-06-13 23:49:00,SystemResetWarning,0830.4,5.00,000.00,028.7,028.3,000.0,036.8,030.6,026.5,0000.0,0028.91,0006.62,0004.40
2024-06-13 23:50:00,SystemResetWarning,0830.4,5.00,000.00,028.8,028.5,000.0,036.8,030.8,026.1,0000.0,0029.33,0006.59,0004.39
2024-06-13 23:51:00,SystemResetWarning,0830.3,4.98,000.00,028.8,027.6,000.0,036.9,030.3,026.0,0000.0,0029.04,0006.60,0004.40
2024-06-13 23:52:00,SystemResetWarning,0830.3,5.01,000.00,028.5,025.6,000.0,036.9,029.3,025.9,0000.0,0029.36,0006.57,0004.42
2024-06-13 23:53:00,SystemResetWarning,0830.3,5.01,000.00,028.3,025.5,000.0,036.9,029.3,026.1,0000.0,0030.15,0006.67,0004.45
2024-06-13 23:54:00,SystemResetWarning,0830.3,4.98,000.00,028.3,026.1,000.0,036.8,029.6,025.8,0000.0,0031.33,0006.69,0004.48
2024-06-13 23:55:00,SystemResetWarning,0830.3,5.01,000.00,028.3,026.6,000.0,036.8,029.8,026.1,0000.0,0032.13,0006.63,0004.50
2024-06-13 23:56:00,SystemResetWarning,0830.4,5.02,000.00,028.4,027.0,000.0,036.7,030.0,026.2,0000.0,0032.08,0006.65,0004.52
2024-06-13 23:57:00,SystemResetWarning,0830.4,5.00,000.00,028.5,027.4,000.0,036.7,030.2,026.7,0000.0,0031.21,0006.62,0004.54
2024-06-13 23:58:00,SystemResetWarning,0830.4,5.00,000.00,028.6,027.8,000.0,036.7,030.4,027.0,0000.0,0029.60,0006.54,0004.57
2024-06-13 23:59:00,SystemResetWarning,0830.4,5.00,000.00,028.7,028.1,000.0,036.8,030.5,027.0,0000.0,0028.24,0006.57,0004.59
